Location: Phoenix
(33.4480°N, 112.0730°W)
Time: 08:01:06
(UTC-07:00)

ISS - All Passes

Search period start: 30 April 2016 00:00
Search period end: 10 May 2016 00:00
Orbit: 402 x 405 km, 51.6° (Epoch: 30 April)

Date Brightness Start Highest point End Pass type
(mag) Time Alt. Az. Time Alt. Az. Time Alt. Az.
30 Apr - 06:49:22 10° S 06:52:00 23° SE 06:54:38 10° ENE daylight
30 Apr - 08:25:36 10° W 08:28:22 25° NW 08:31:10 10° NNE daylight
30 Apr - 14:55:59 10° NW 14:59:10 48° NE 15:02:20 10° ESE daylight
30 Apr - 16:34:14 10° WSW 16:35:16 11° SW 16:36:18 10° SW daylight
01 May - 05:58:56 10° SE 05:59:44 11° SE 06:00:32 10° ESE daylight
01 May - 07:32:39 10° WSW 07:35:50 50° NW 07:39:01 10° NE daylight
01 May - 14:03:51 10° NNW 14:06:36 24° NE 14:09:21 10° E daylight
01 May - 15:40:18 10° WNW 15:42:59 24° SW 15:45:40 10° S daylight
02 May - 06:40:08 10° SW 06:43:21 70° SE 06:46:37 10° NE daylight
02 May - 08:18:35 10° WNW 08:20:08 13° NNW 08:21:41 10° N daylight
02 May - 13:12:02 10° N 13:13:56 15° NNE 13:15:51 10° ENE daylight
02 May - 14:47:26 10° NW 14:50:38 54° SW 14:53:48 10° SSE daylight
03 May - 05:48:05 10° SSW 05:50:58 29° SE 05:53:52 10° ENE daylight
03 May - 07:24:52 10° W 07:27:26 21° NW 07:30:00 10° NNE daylight
03 May - 13:54:56 10° NW 13:58:11 63° NE 14:01:24 10° SE daylight
04 May - 04:56:54 10° SSE 04:58:39 14° SE 05:00:25 10° E visible
04 May - 06:31:44 10° WSW 06:34:49 39° NW 06:37:55 10° NNE daylight
04 May - 13:02:41 10° NNW 13:05:37 30° NE 13:08:32 10° ESE daylight
04 May - 14:39:33 10° W 14:41:54 19° SW 14:44:16 10° S daylight
05 May - 05:39:03 10° SW 05:42:18 88° NW 05:45:34 10° NE daylight
05 May - 07:18:16 10° NW 07:19:11 11° NNW 07:20:06 10° NNW daylight
05 May - 12:10:42 10° N 12:12:58 17° NNE 12:15:12 10° ENE daylight
05 May - 13:46:27 10° WNW 13:49:32 40° SW 13:52:37 10° SSE daylight
06 May - 04:46:48 10° SSW 04:49:51 38° SE 04:52:55 10° ENE visible
06 May - 06:24:07 10° WNW 06:26:25 18° NNW 06:28:44 10° NNE daylight
06 May - 11:19:28 10° NNE 11:20:11 11° NNE 11:20:54 10° NE daylight
06 May - 12:53:49 10° NW 12:57:05 83° NE 13:00:20 10° SE daylight
07 May - 03:55:13 10° S 03:57:29 18° SE 03:59:45 10° E visible
07 May - 05:30:47 10° WSW 05:33:45 31° NW 05:36:43 10° NNE daylight
07 May - 12:01:28 10° NNW 12:04:32 37° NE 12:07:35 10° ESE daylight
07 May - 13:38:50 10° W 13:40:44 15° SW 13:42:37 10° SSW daylight
08 May - 04:37:56 10° SW 04:41:10 67° NW 04:44:25 10° NE visible
08 May - 11:09:21 10° NNW 11:11:53 20° NE 11:14:23 10° E daylight
08 May - 12:45:26 10° WNW 12:48:22 31° SW 12:51:17 10° SSE daylight
09 May - 03:45:30 10° SSW 03:48:40 51° SE 03:51:50 10° ENE visible
09 May - 05:23:20 10° WNW 05:25:19 15° NNW 05:27:19 10° N daylight
09 May - 10:17:40 10° N 10:19:07 12° NNE 10:20:32 10° NE daylight
09 May - 11:52:39 10° NW 11:55:55 74° SW 11:59:08 10° SE daylight
